SCP
0 0 0 0 0 0 0 0 0 0 0 0 0 0 0 0 0 0 0 0 0 1 1 1 1 1 2 1 2 2 1 1 1 1 1 0 1 -0 -0 -0 -0 -0 -0 -0 -0 -0 -0 -0 -0
0 0 0 0 0 0 0 0 0 0 0 -0 0 0 0 0 0 0 0 0 0 0 2 2 2 2 1 1 2 2 2 3 2 0 1 0 0 -0 -0 0 -0 -0 -0 -0 -0 -0 -0 -0 -0
0 0 0 0 0 0 0 0 0 0 0 0 0 0 0 0 0 0 0 0 0 0 1 2 1 2 2 2 1 1 1 0 1 1 1 0 1 0 0 0 0 -0 -0 -0 -0 -0 -0 -0 -0
0 0 0 0 0 0 0 0 0 0 0 0 0 0 0 0 0 0 0 0 0 0 1 1 1 2 2 1 1 0 1 0 1 1 1 -0 1 0 0 0 0 -0 -0 -0 -0 -0 -0 -0 -0
0 0 0 0 0 0 0 0 0 0 0 0 0 0 0 0 0 0 0 0 0 0 0 1 1 1 1 1 1 1 0 0 0 0 1 1 0 0 1 0 0 0 -0 -0 -0 -0 -0 -0 -0
0 0 0 0 0 0 0 0 0 0 0 0 0 0 0 0 0 0 0 0 0 0 0 0 0 0 0 0 0 0 0 0 0 0 0 0 -0 0 0 0 0 0 -0 -0 -0 -0 -0 -0 -0
0 0 0 0 0 0 0 0 0 0 0 0 0 0 0 0 0 0 0 0 0 0 0 0 0 0 0 0 0 0 0 -0 0 0 0 0 0 0 0 0 0 0 0 -0 -0 -0 -0 -0 -0
0 0 0 0 0 0 0 0 0 0 0 0 0 0 0 0 0 0 0 0 0 0 0 0 0 0 0 0 0 0 -0 -0 -0 -0 0 -0 0 0 0 0 0 0 0 0 -0 -0 -0 0 0
0 0 0 0 0 0 0 0 0 0 0 0 0 0 0 0 0 0 0 0 0 0 0 0 0 0 0 0 0 0 -0 -0 -0 0 0 0 0 0 0 0 0 0 0 0 0 0 0 0 0
0 0 0 0 0 0 0 0 0 0 0 0 0 0 0 0 0 0 0 0 0 0 0 0 0 0 0 0 0 0 0 0 0 0 0 0 0 0 0 0 0 0 0 0 0 0 0 0 0
0 0 0 0 0 0 0 0 0 0 0 0 0 0 0 0 0 0 0 0 0 0 0 0 0 0 0 0 0 0 0 0 0 0 0 0 0 0 0 0 0 0 0 0 0 0 0 0 0
0 0 0 0 0 0 0 0 0 0 0 0 0 0 0 0 0 0 0 0 0 0 0 0 0 0 0 0 0 0 0 0 0 0 0 0 0 0 0 0 0 0 0 0 0 0 -0 0 0
0 0 0 0 0 0 0 0 0 0 0 0 0 0 0 0 0 0 0 0 0 0 0 0 0 0 0 0 0 0 0 0 0 0 0 0 0 0 0 0 0 0 0 0 0 0 -0 0 0
0 0 0 0 0 0 0 0 0 0 0 0 0 0 0 0 0 0 0 0 0 0 0 0 0 0 0 0 0 0 0 0 0 0 0 0 0 0 0 0 0 0 0 0 0 0 0 0 0
0 0 0 0 0 0 0 0 0 0 0 0 0 0 0 0 0 0 0 0 0 0 0 0 0 0 0 0 0 0 -0 0 0 0 0 0 0 0 0 0 0 0 0 0 0 0 0 0 0
0 0 0 0 0 0 0 0 0 0 0 0 0 0 0 0 0 0 0 0 0 0 0 0 0 0 0 0 0 0 -0 0 0 0 0 0 0 0 0 0 0 0 0 0 0 0 0 0 0
0 0 0 0 0 0 0 0 0 0 0 0 0 0 0 0 0 0 0 0 0 0 0 0 0 0 0 0 0 0 0 0 0 0 0 0 0 0 0 0 0 0 0 0 0 0 0 0 0
0 0 0 0 0 0 0 0 -0 0 0 0 0 0 0 0 0 0 0 0 0 0 0 0 0 0 0 0 0 0 0 0 0 0 0 0 0 0 0 0 0 0 0 0 0 0 0 0 0
0 0 0 0 0 0 0 0 0 0 0 0 0 0 0 0 0 0 -0 0 0 0 0 -0 0 0 0 0 0 0 0 0 0 0 0 0 0 0 0 0 0 0 0 0 0 0 0 0 0
0 0 0 0 0 0 0 -0 0 0 0 0 0 0 0 0 0 0 -0 -0 -0 -0 0 -0 -0 0 0 0 0 0 0 0 0 0 0 0 0 0 0 0 0 0 0 0 0 0 0 0 0
0 0 0 0 0 0 0 0 0 0 0 0 0 0 0 -0 -0 -0 -0 -0 -0 -0 -0 -0 -0 0 0 0 0 0 0 0 0 0 0 0 0 0 0 -0 0 0 0 0 0 0 0 0 0
0 0 0 0 0 0 0 0 0 0 0 0 0 0 0 -0 -0 -0 -0 -0 -0 -0 -0 -0 -0 -0 -0 0 0 0 0 0 0 0 0 -0 -0 -0 -0 -0 -0 0 0 0 0 0 0 0 0
0 0 0 0 0 0 0 0 0 0 0 0 -0 0 0 -0 -0 -0 -0 -0 -0 -0 -0 -0 -0 -0 -0 -0 0 0 0 0 0 0 -0 -0 -0 -0 -0 -0 -0 -0 0 0 0 0 0 0 0
0 0 0 0 0 0 0 0 0 0 0 0 -0 0 0 -0 -0 -0 -0 -0 -0 -0 -0 -0 -0 -0 -0 -0 -0 0 -0 0 0 -0 0 -0 -0 -0 -0 -0 0 0 0 0 0 0 0 0 0
0 0 0 0 0 0 0 0 -0 0 0 0 0 0 0 -0 -0 -0 -0 -0 -0 -0 -0 -0 -0 -0 -0 -0 -0 -0 0 0 0 -0 -0 -0 -0 -0 -0 0 0 0 0 0 0 0 0 0 0
0 0 0 0 0 0 0 0 0 0 0 0 0 0 0 0 -0 -0 -0 -0 -0 -0 -0 -0 -0 -0 -0 -0 -0 -0 0 0 -0 -0 -0 -0 -0 -0 -0 -0 -0 -0 0 0 0 0 0 0 0
0 0 0 0 0 0 0 0 0 0 0 0 0 0 0 0 -0 -0 -0 -0 -0 -0 -0 -0 -0 -0 -0 -0 -0 -0 0 0 -0 -0 -0 -0 -0 -0 -0 -0 -0 -0 0 0 0 0 0 0 0
0 0 0 0 0 0 0 0 0 0 0 0 0 0 0 0 0 -0 -0 -0 0 -0 -0 -0 -0 -0 -0 -0 -0 -0 -0 -0 0 -0 -0 -0 -0 -0 -0 -0 -0 0 0 0 0 0 0 0 0
0 0 0 0 0 0 0 0 0 0 0 0 0 0 0 0 0 -0 0 0 0 -0 -0 0 -0 -0 -0 -0 -0 -0 0 0 0 -0 -0 -0 -0 -0 0 0 0 0 0 0 0 0 0 0 0
0 0 0 0 0 0 0 0 0 0 0 0 0 0 0 0 0 0 0 0 -0 -0 -0 -0 0 -0 0 0 0 0 0 0 0 0 0 0 0 0 0 0 0 0 0 0 0 0 0 0 0
Wind_Speed_500mb
14 13 7 5 4 1 2 5 4 7 5 6 7 8 4 6 7 9 6 16 16 42 40 51 43 45 47 47 44 52 61 62 64 64 62 59 57 58 59 55 53 45 43 39 37 41 45 43 43
17 14 7 5 4 5 4 4 13 15 10 8 10 9 7 6 12 7 11 17 18 27 47 39 49 49 49 52 54 53 57 58 71 70 66 61 56 56 59 55 52 44 42 42 42 44 42 41 39
17 12 3 6 4 7 5 11 18 11 23 14 7 11 7 8 16 8 27 18 16 26 39 43 49 55 56 59 55 48 50 53 76 71 70 61 60 61 59 54 51 45 42 42 46 47 45 42 40
12 7 9 3 7 7 7 9 11 16 3 13 7 8 11 18 8 15 15 25 22 22 43 47 49 51 57 58 52 48 35 38 68 74 68 60 58 60 59 56 53 45 42 47 45 47 42 43 42
15 3 3 1 7 7 10 15 10 9 7 12 17 7 9 14 28 21 21 26 28 23 44 51 51 53 59 69 49 45 41 26 56 63 62 60 61 64 62 58 56 54 52 50 46 46 47 47 44
5 3 4 6 8 8 11 14 5 6 6 4 10 6 11 23 26 29 23 23 27 29 44 48 52 64 70 68 49 37 44 57 62 56 55 60 65 68 66 61 59 51 50 53 50 47 45 47 47
7 5 5 6 6 10 8 3 7 9 8 12 10 6 13 21 28 28 26 23 19 23 29 41 47 63 73 78 61 57 54 59 54 66 71 67 69 71 68 62 55 52 54 54 51 46 47 44 44
10 5 5 9 6 8 7 5 13 9 10 9 12 12 11 18 25 24 19 15 16 17 22 30 41 54 57 81 59 51 53 57 62 84 78 80 79 75 69 58 53 55 54 52 51 48 45 42 41
13 5 10 9 13 8 9 8 8 17 12 14 18 28 30 24 24 21 13 12 13 13 15 21 35 51 47 58 56 45 41 51 74 80 88 84 85 78 66 60 60 55 53 52 50 45 44 42 40
10 9 18 12 11 10 4 10 15 7 8 16 27 41 39 30 25 18 13 11 14 13 14 23 22 45 52 61 61 47 40 62 80 87 102 89 82 77 67 63 58 54 52 51 49 44 41 41 40
11 18 13 14 27 19 14 12 9 10 12 33 26 34 38 35 26 21 16 13 19 20 21 26 30 34 46 51 52 56 58 65 84 73 87 80 76 71 70 69 58 56 54 55 49 44 39 36 35
9 22 20 15 25 12 8 12 10 19 30 35 27 27 28 34 27 24 14 16 18 22 25 28 35 35 46 56 42 47 39 69 95 80 84 80 80 77 75 70 62 58 55 53 47 40 37 33 31
12 11 21 33 26 26 18 29 18 35 53 41 34 26 29 30 23 22 21 19 22 23 23 24 25 28 30 32 31 37 70 81 87 88 88 86 82 80 75 66 58 51 47 42 41 37 36 30 29
10 16 24 22 21 18 18 13 11 47 34 38 36 31 30 27 26 27 25 24 26 25 26 23 23 24 29 29 39 54 72 106 93 83 82 81 78 76 71 61 53 50 43 38 34 35 31 30 27
8 17 19 24 35 21 18 13 18 38 21 25 30 31 28 29 32 29 22 25 25 25 22 24 24 24 24 34 41 59 66 89 87 76 79 78 73 67 63 58 48 41 41 33 31 27 26 30 29
4 4 11 3 3 5 17 21 25 14 18 28 30 28 28 32 33 27 21 24 26 23 26 29 28 26 34 46 51 70 79 81 82 78 72 74 66 53 59 54 46 49 41 32 29 28 30 30 27
5 19 15 17 9 7 14 12 12 9 16 28 31 32 33 34 33 29 25 20 27 27 29 34 32 31 43 58 57 61 75 84 86 83 70 64 66 62 57 59 62 47 38 35 32 34 36 31 27
18 15 10 19 2 3 7 29 35 15 22 32 37 34 37 36 38 33 30 25 25 27 29 37 36 36 41 64 60 55 76 89 83 80 82 79 70 68 63 61 39 37 40 42 38 39 31 26 21
15 13 19 11 8 4 18 23 34 22 15 24 31 37 41 44 31 32 32 32 27 28 32 34 42 42 45 52 62 61 78 97 74 81 76 65 60 54 53 41 45 47 47 40 40 37 34 33 29
19 15 35 23 15 15 19 30 32 24 16 20 39 41 44 37 39 39 38 36 31 36 35 38 38 44 50 53 61 67 68 88 75 79 64 56 55 50 46 49 57 54 49 44 44 39 36 36 34
32 35 32 29 11 17 15 16 14 5 10 11 25 37 40 47 47 47 45 44 36 41 41 41 40 47 53 60 61 69 73 80 80 88 84 77 54 53 54 56 53 50 48 48 44 40 39 39 36
34 24 29 27 15 13 4 12 14 23 21 14 24 38 46 50 49 46 49 49 49 41 48 46 46 42 51 64 63 60 85 72 93 94 92 97 69 59 63 59 57 52 49 49 43 39 41 41 42
28 11 25 32 25 14 24 11 7 6 14 23 17 40 47 54 54 56 55 49 44 41 49 50 49 48 50 61 66 76 75 84 81 87 97 100 73 64 65 63 58 55 53 49 47 44 45 43 49
5 16 2 1 7 14 28 13 14 13 16 12 15 17 34 51 56 54 48 46 45 41 48 54 57 57 55 59 65 80 81 82 86 95 98 86 79 71 67 64 60 57 56 52 48 47 48 49 52
14 9 4 6 10 16 17 18 28 11 16 20 25 30 17 40 57 58 59 57 53 49 49 56 61 67 61 58 67 78 86 85 84 94 89 87 85 80 71 67 65 61 56 55 55 56 57 57 59
29 22 10 13 11 11 11 14 15 20 21 20 24 29 15 30 50 66 64 62 60 56 53 58 61 66 67 64 71 79 86 86 85 81 84 81 84 83 78 68 63 60 58 55 59 62 65 66 67
14 22 30 7 4 6 8 8 15 18 14 12 20 20 23 34 44 64 64 65 65 62 57 56 59 61 64 64 66 71 79 89 90 89 83 86 80 76 71 68 69 67 62 61 61 63 65 65 66
18 23 11 16 14 22 8 6 14 5 10 14 18 25 15 29 41 52 61 66 70 66 58 52 53 57 57 61 64 68 73 82 87 87 89 89 86 82 80 78 74 70 69 69 68 68 65 66 68
18 20 8 12 15 16 8 9 16 24 13 14 19 21 9 26 35 46 58 63 67 69 67 61 56 59 59 59 59 65 70 76 82 85 88 91 89 87 87 85 83 83 81 76 74 73 75 88 83
25 37 36 13 11 10 12 21 4 15 10 9 20 20 6 13 25 37 45 56 65 68 71 71 67 65 65 63 65 63 57 59 67 71 71 80 89 91 92 89 88 84 84 79 74 77 87 74 73
Wind_Direction_500mb
179 180 160 147 188 343 162 209 278 238 246 206 247 202 222 232 246 284 269 187 182 197 203 208 213 209 207 199 201 203 198 192 191 182 178 176 169 168 166 163 164 161 156 152 148 134 133 133 131
176 165 146 104 143 158 170 244 231 232 267 300 196 195 230 239 231 239 194 206 205 187 212 213 207 200 195 191 190 193 193 201 191 184 182 176 173 174 171 164 166 163 156 145 140 139 137 135 134
173 169 145 88 129 175 205 220 246 257 280 260 212 217 210 207 211 219 212 215 221 197 205 215 209 207 205 200 195 193 196 203 190 184 180 179 176 171 171 165 167 162 154 139 139 136 131 132 135
165 155 69 225 209 227 221 260 267 295 277 188 205 248 243 222 214 216 232 233 240 222 214 215 204 199 199 197 188 193 217 278 199 183 182 180 176 172 171 166 162 157 145 138 142 137 134 131 128
172 128 128 169 257 258 244 266 245 268 274 187 183 226 245 256 234 233 244 240 248 237 211 218 193 194 191 179 201 233 234 194 173 180 184 184 181 174 168 165 160 156 155 155 150 137 127 123 123
138 108 193 221 243 256 265 248 244 240 251 208 209 206 249 257 240 238 239 245 256 235 209 215 204 195 193 206 231 228 184 192 197 184 194 187 179 174 166 164 165 165 155 151 146 133 128 121 118
168 155 244 212 237 283 238 235 269 310 248 247 215 222 257 269 247 241 254 260 255 229 222 222 218 201 210 220 233 244 219 226 209 208 193 186 177 171 167 168 169 160 150 147 142 133 128 121 117
175 146 181 237 199 246 236 268 279 246 312 254 217 234 253 272 251 253 258 248 253 247 228 217 213 216 226 217 227 211 227 214 214 190 188 184 171 169 171 167 163 155 149 148 143 137 129 122 116
172 173 229 230 189 214 204 314 284 287 257 241 229 234 246 261 264 256 250 260 263 267 248 208 219 222 221 217 199 208 221 219 196 186 177 175 167 168 168 162 159 154 151 153 148 140 131 122 119
189 205 217 217 208 244 231 281 294 271 245 251 246 246 248 254 257 255 255 252 258 252 258 233 222 224 211 204 208 219 231 225 214 198 168 172 173 167 164 159 157 151 151 154 153 148 139 132 126
192 235 220 231 226 252 292 269 225 225 263 253 237 258 248 247 238 238 252 242 239 233 228 227 228 229 222 225 223 226 242 214 209 169 161 167 167 162 164 161 160 154 154 157 158 156 146 135 134
213 239 227 244 246 236 241 278 257 226 262 280 276 261 243 239 226 234 232 236 244 228 230 224 224 226 220 217 239 243 231 205 192 161 156 166 167 165 165 164 162 162 160 161 160 155 151 144 136
222 244 242 253 250 255 254 252 257 253 273 266 258 241 229 223 226 223 235 229 224 222 219 231 224 221 223 229 241 220 195 172 164 156 166 167 164 165 164 162 164 167 164 164 160 159 161 150 148
209 237 258 273 266 255 239 253 181 272 271 251 243 223 211 218 218 220 230 233 219 214 220 214 221 215 216 212 191 181 152 159 154 159 162 163 163 163 162 160 167 169 167 166 164 167 163 161 158
250 276 289 260 260 244 203 227 226 276 273 221 208 206 210 213 216 217 224 234 219 209 216 212 214 213 199 182 166 168 155 153 149 159 162 162 161 157 155 160 160 165 169 168 162 166 169 170 168
240 219 270 317 164 236 197 254 260 292 233 203 196 201 211 215 216 212 215 227 221 203 213 210 210 198 186 184 167 153 160 160 160 158 162 160 155 156 156 147 160 174 172 170 180 185 186 184 176
228 253 240 288 223 205 207 263 252 279 238 213 202 205 215 217 213 214 215 222 215 203 209 207 201 192 182 180 179 162 164 163 160 162 168 162 170 171 167 165 173 170 172 183 190 195 193 181 183
206 232 232 249 158 130 270 273 286 239 209 217 210 207 211 214 217 213 216 216 214 206 204 209 202 193 182 184 186 186 175 165 167 169 173 177 172 175 174 166 168 187 189 191 196 199 190 190 193
199 216 241 233 211 295 261 266 282 294 218 215 211 209 214 221 218 213 221 216 214 203 195 212 209 195 189 186 191 190 175 168 175 177 181 180 179 178 179 173 194 208 201 201 206 201 202 198 205
229 238 251 283 274 217 293 297 291 275 252 211 208 208 214 213 218 220 220 215 219 204 198 201 201 198 196 191 192 191 172 182 178 178 176 179 182 190 185 196 199 202 207 209 213 211 211 213 219
231 234 252 254 318 278 281 273 259 271 261 219 217 217 217 213 214 219 218 213 216 204 196 196 200 198 195 194 195 193 190 180 178 179 181 185 192 192 201 206 210 210 216 219 221 221 227 233 237
235 230 248 255 268 261 324 289 276 285 279 242 212 203 213 214 215 218 213 213 209 207 197 199 200 199 200 200 196 192 196 185 188 187 190 194 194 206 209 211 216 219 222 224 226 231 237 242 247
238 207 215 235 236 277 268 249 247 258 267 262 238 211 211 215 212 212 213 212 208 203 198 199 199 197 192 195 200 195 190 192 189 185 185 189 210 214 209 215 216 221 227 231 233 239 245 251 253
317 197 116 91 219 245 230 223 263 230 232 256 256 230 214 212 213 214 211 208 206 203 198 197 198 197 196 196 201 199 196 191 191 189 194 207 215 210 213 219 220 224 231 237 243 247 252 257 259
202 153 205 225 208 243 186 192 251 240 245 241 266 271 231 213 210 208 205 207 207 207 200 198 196 198 201 207 204 204 203 200 197 199 206 211 214 213 220 223 227 232 240 246 251 255 259 261 262
205 206 200 242 235 260 156 222 239 231 248 249 262 270 257 206 212 209 205 205 205 208 204 200 200 201 205 206 203 207 208 207 208 211 212 215 219 222 227 231 237 243 249 257 260 261 263 266 268
181 207 207 255 210 285 208 264 271 254 259 265 273 269 240 216 210 211 204 206 204 207 208 205 204 205 206 207 207 209 210 210 210 212 216 220 224 228 230 234 241 249 255 261 265 266 267 270 269
197 148 166 220 234 245 217 258 237 275 274 294 295 276 251 217 209 209 207 205 205 206 208 209 210 213 209 207 210 211 211 211 214 216 221 224 228 232 235 240 246 253 257 261 267 270 269 271 270
202 216 203 197 210 235 252 234 220 230 237 279 297 295 265 197 208 214 205 204 207 207 208 208 211 214 216 215 213 213 215 216 218 220 223 226 230 234 239 243 248 252 255 260 266 269 276 280 278
230 217 220 225 186 236 255 234 218 235 231 253 289 324 330 231 221 220 215 206 209 211 213 211 212 216 218 217 218 217 218 219 222 228 234 233 234 237 239 243 249 253 260 265 265 264 268 280 274
Wind_Speed_850mb
14 13 7 5 4 1 2 5 4 7 5 6 7 8 4 6 7 9 6 16 16 42 40 51 43 45 47 47 44 52 61 62 64 64 62 59 57 58 59 55 53 45 43 39 37 41 45 43 43
17 14 7 5 4 5 4 4 13 15 10 8 10 9 7 6 12 7 11 17 18 27 47 39 49 49 49 52 54 53 57 58 71 70 66 61 56 56 59 55 52 44 42 42 42 44 42 41 39
17 12 3 6 4 7 5 11 18 11 23 14 7 11 7 8 16 8 27 18 16 26 39 43 49 55 56 59 55 48 50 53 76 71 70 61 60 61 59 54 51 45 42 42 46 47 45 42 40
12 7 9 3 7 7 7 9 11 16 3 13 7 8 11 18 8 15 15 25 22 22 43 47 49 51 57 58 52 48 35 38 68 74 68 60 58 60 59 56 53 45 42 47 45 47 42 43 42
15 3 3 1 7 7 10 15 10 9 7 12 17 7 9 14 28 21 21 26 28 23 44 51 51 53 59 69 49 45 41 26 56 63 62 60 61 64 62 58 56 54 52 50 46 46 47 47 44
5 3 4 6 8 8 11 14 5 6 6 4 10 6 11 23 26 29 23 23 27 29 44 48 52 64 70 68 49 37 44 57 62 56 55 60 65 68 66 61 59 51 50 53 50 47 45 47 47
7 5 5 6 6 10 8 3 7 9 8 12 10 6 13 21 28 28 26 23 19 23 29 41 47 63 73 78 61 57 54 59 54 66 71 67 69 71 68 62 55 52 54 54 51 46 47 44 44
10 5 5 9 6 8 7 5 13 9 10 9 12 12 11 18 25 24 19 15 16 17 22 30 41 54 57 81 59 51 53 57 62 84 78 80 79 75 69 58 53 55 54 52 51 48 45 42 41
13 5 10 9 13 8 9 8 8 17 12 14 18 28 30 24 24 21 13 12 13 13 15 21 35 51 47 58 56 45 41 51 74 80 88 84 85 78 66 60 60 55 53 52 50 45 44 42 40
10 9 18 12 11 10 4 10 15 7 8 16 27 41 39 30 25 18 13 11 14 13 14 23 22 45 52 61 61 47 40 62 80 87 102 89 82 77 67 63 58 54 52 51 49 44 41 41 40
11 18 13 14 27 19 14 12 9 10 12 33 26 34 38 35 26 21 16 13 19 20 21 26 30 34 46 51 52 56 58 65 84 73 87 80 76 71 70 69 58 56 54 55 49 44 39 36 35
9 22 20 15 25 12 8 12 10 19 30 35 27 27 28 34 27 24 14 16 18 22 25 28 35 35 46 56 42 47 39 69 95 80 84 80 80 77 75 70 62 58 55 53 47 40 37 33 31
12 11 21 33 26 26 18 29 18 35 53 41 34 26 29 30 23 22 21 19 22 23 23 24 25 28 30 32 31 37 70 81 87 88 88 86 82 80 75 66 58 51 47 42 41 37 36 30 29
10 16 24 22 21 18 18 13 11 47 34 38 36 31 30 27 26 27 25 24 26 25 26 23 23 24 29 29 39 54 72 106 93 83 82 81 78 76 71 61 53 50 43 38 34 35 31 30 27
8 17 19 24 35 21 18 13 18 38 21 25 30 31 28 29 32 29 22 25 25 25 22 24 24 24 24 34 41 59 66 89 87 76 79 78 73 67 63 58 48 41 41 33 31 27 26 30 29
4 4 11 3 3 5 17 21 25 14 18 28 30 28 28 32 33 27 21 24 26 23 26 29 28 26 34 46 51 70 79 81 82 78 72 74 66 53 59 54 46 49 41 32 29 28 30 30 27
5 19 15 17 9 7 14 12 12 9 16 28 31 32 33 34 33 29 25 20 27 27 29 34 32 31 43 58 57 61 75 84 86 83 70 64 66 62 57 59 62 47 38 35 32 34 36 31 27
18 15 10 19 2 3 7 29 35 15 22 32 37 34 37 36 38 33 30 25 25 27 29 37 36 36 41 64 60 55 76 89 83 80 82 79 70 68 63 61 39 37 40 42 38 39 31 26 21
15 13 19 11 8 4 18 23 34 22 15 24 31 37 41 44 31 32 32 32 27 28 32 34 42 42 45 52 62 61 78 97 74 81 76 65 60 54 53 41 45 47 47 40 40 37 34 33 29
19 15 35 23 15 15 19 30 32 24 16 20 39 41 44 37 39 39 38 36 31 36 35 38 38 44 50 53 61 67 68 88 75 79 64 56 55 50 46 49 57 54 49 44 44 39 36 36 34
32 35 32 29 11 17 15 16 14 5 10 11 25 37 40 47 47 47 45 44 36 41 41 41 40 47 53 60 61 69 73 80 80 88 84 77 54 53 54 56 53 50 48 48 44 40 39 39 36
34 24 29 27 15 13 4 12 14 23 21 14 24 38 46 50 49 46 49 49 49 41 48 46 46 42 51 64 63 60 85 72 93 94 92 97 69 59 63 59 57 52 49 49 43 39 41 41 42
28 11 25 32 25 14 24 11 7 6 14 23 17 40 47 54 54 56 55 49 44 41 49 50 49 48 50 61 66 76 75 84 81 87 97 100 73 64 65 63 58 55 53 49 47 44 45 43 49
5 16 2 1 7 14 28 13 14 13 16 12 15 17 34 51 56 54 48 46 45 41 48 54 57 57 55 59 65 80 81 82 86 95 98 86 79 71 67 64 60 57 56 52 48 47 48 49 52
14 9 4 6 10 16 17 18 28 11 16 20 25 30 17 40 57 58 59 57 53 49 49 56 61 67 61 58 67 78 86 85 84 94 89 87 85 80 71 67 65 61 56 55 55 56 57 57 59
29 22 10 13 11 11 11 14 15 20 21 20 24 29 15 30 50 66 64 62 60 56 53 58 61 66 67 64 71 79 86 86 85 81 84 81 84 83 78 68 63 60 58 55 59 62 65 66 67
14 22 30 7 4 6 8 8 15 18 14 12 20 20 23 34 44 64 64 65 65 62 57 56 59 61 64 64 66 71 79 89 90 89 83 86 80 76 71 68 69 67 62 61 61 63 65 65 66
18 23 11 16 14 22 8 6 14 5 10 14 18 25 15 29 41 52 61 66 70 66 58 52 53 57 57 61 64 68 73 82 87 87 89 89 86 82 80 78 74 70 69 69 68 68 65 66 68
18 20 8 12 15 16 8 9 16 24 13 14 19 21 9 26 35 46 58 63 67 69 67 61 56 59 59 59 59 65 70 76 82 85 88 91 89 87 87 85 83 83 81 76 74 73 75 88 83
25 37 36 13 11 10 12 21 4 15 10 9 20 20 6 13 25 37 45 56 65 68 71 71 67 65 65 63 65 63 57 59 67 71 71 80 89 91 92 89 88 84 84 79 74 77 87 74 73
Wind_Direction_850mb
179 180 160 147 188 343 162 209 278 238 246 206 247 202 222 232 246 284 269 187 182 197 203 208 213 209 207 199 201 203 198 192 191 182 178 176 169 168 166 163 164 161 156 152 148 134 133 133 131
176 165 146 104 143 158 170 244 231 232 267 300 196 195 230 239 231 239 194 206 205 187 212 213 207 200 195 191 190 193 193 201 191 184 182 176 173 174 171 164 166 163 156 145 140 139 137 135 134
173 169 145 88 129 175 205 220 246 257 280 260 212 217 210 207 211 219 212 215 221 197 205 215 209 207 205 200 195 193 196 203 190 184 180 179 176 171 171 165 167 162 154 139 139 136 131 132 135
165 155 69 225 209 227 221 260 267 295 277 188 205 248 243 222 214 216 232 233 240 222 214 215 204 199 199 197 188 193 217 278 199 183 182 180 176 172 171 166 162 157 145 138 142 137 134 131 128
172 128 128 169 257 258 244 266 245 268 274 187 183 226 245 256 234 233 244 240 248 237 211 218 193 194 191 179 201 233 234 194 173 180 184 184 181 174 168 165 160 156 155 155 150 137 127 123 123
138 108 193 221 243 256 265 248 244 240 251 208 209 206 249 257 240 238 239 245 256 235 209 215 204 195 193 206 231 228 184 192 197 184 194 187 179 174 166 164 165 165 155 151 146 133 128 121 118
168 155 244 212 237 283 238 235 269 310 248 247 215 222 257 269 247 241 254 260 255 229 222 222 218 201 210 220 233 244 219 226 209 208 193 186 177 171 167 168 169 160 150 147 142 133 128 121 117
175 146 181 237 199 246 236 268 279 246 312 254 217 234 253 272 251 253 258 248 253 247 228 217 213 216 226 217 227 211 227 214 214 190 188 184 171 169 171 167 163 155 149 148 143 137 129 122 116
172 173 229 230 189 214 204 314 284 287 257 241 229 234 246 261 264 256 250 260 263 267 248 208 219 222 221 217 199 208 221 219 196 186 177 175 167 168 168 162 159 154 151 153 148 140 131 122 119
189 205 217 217 208 244 231 281 294 271 245 251 246 246 248 254 257 255 255 252 258 252 258 233 222 224 211 204 208 219 231 225 214 198 168 172 173 167 164 159 157 151 151 154 153 148 139 132 126
192 235 220 231 226 252 292 269 225 225 263 253 237 258 248 247 238 238 252 242 239 233 228 227 228 229 222 225 223 226 242 214 209 169 161 167 167 162 164 161 160 154 154 157 158 156 146 135 134
213 239 227 244 246 236 241 278 257 226 262 280 276 261 243 239 226 234 232 236 244 228 230 224 224 226 220 217 239 243 231 205 192 161 156 166 167 165 165 164 162 162 160 161 160 155 151 144 136
222 244 242 253 250 255 254 252 257 253 273 266 258 241 229 223 226 223 235 229 224 222 219 231 224 221 223 229 241 220 195 172 164 156 166 167 164 165 164 162 164 167 164 164 160 159 161 150 148
209 237 258 273 266 255 239 253 181 272 271 251 243 223 211 218 218 220 230 233 219 214 220 214 221 215 216 212 191 181 152 159 154 159 162 163 163 163 162 160 167 169 167 166 164 167 163 161 158
250 276 289 260 260 244 203 227 226 276 273 221 208 206 210 213 216 217 224 234 219 209 216 212 214 213 199 182 166 168 155 153 149 159 162 162 161 157 155 160 160 165 169 168 162 166 169 170 168
240 219 270 317 164 236 197 254 260 292 233 203 196 201 211 215 216 212 215 227 221 203 213 210 210 198 186 184 167 153 160 160 160 158 162 160 155 156 156 147 160 174 172 170 180 185 186 184 176
228 253 240 288 223 205 207 263 252 279 238 213 202 205 215 217 213 214 215 222 215 203 209 207 201 192 182 180 179 162 164 163 160 162 168 162 170 171 167 165 173 170 172 183 190 195 193 181 183
206 232 232 249 158 130 270 273 286 239 209 217 210 207 211 214 217 213 216 216 214 206 204 209 202 193 182 184 186 186 175 165 167 169 173 177 172 175 174 166 168 187 189 191 196 199 190 190 193
199 216 241 233 211 295 261 266 282 294 218 215 211 209 214 221 218 213 221 216 214 203 195 212 209 195 189 186 191 190 175 168 175 177 181 180 179 178 179 173 194 208 201 201 206 201 202 198 205
229 238 251 283 274 217 293 297 291 275 252 211 208 208 214 213 218 220 220 215 219 204 198 201 201 198 196 191 192 191 172 182 178 178 176 179 182 190 185 196 199 202 207 209 213 211 211 213 219
231 234 252 254 318 278 281 273 259 271 261 219 217 217 217 213 214 219 218 213 216 204 196 196 200 198 195 194 195 193 190 180 178 179 181 185 192 192 201 206 210 210 216 219 221 221 227 233 237
235 230 248 255 268 261 324 289 276 285 279 242 212 203 213 214 215 218 213 213 209 207 197 199 200 199 200 200 196 192 196 185 188 187 190 194 194 206 209 211 216 219 222 224 226 231 237 242 247
238 207 215 235 236 277 268 249 247 258 267 262 238 211 211 215 212 212 213 212 208 203 198 199 199 197 192 195 200 195 190 192 189 185 185 189 210 214 209 215 216 221 227 231 233 239 245 251 253
317 197 116 91 219 245 230 223 263 230 232 256 256 230 214 212 213 214 211 208 206 203 198 197 198 197 196 196 201 199 196 191 191 189 194 207 215 210 213 219 220 224 231 237 243 247 252 257 259
202 153 205 225 208 243 186 192 251 240 245 241 266 271 231 213 210 208 205 207 207 207 200 198 196 198 201 207 204 204 203 200 197 199 206 211 214 213 220 223 227 232 240 246 251 255 259 261 262
205 206 200 242 235 260 156 222 239 231 248 249 262 270 257 206 212 209 205 205 205 208 204 200 200 201 205 206 203 207 208 207 208 211 212 215 219 222 227 231 237 243 249 257 260 261 263 266 268
181 207 207 255 210 285 208 264 271 254 259 265 273 269 240 216 210 211 204 206 204 207 208 205 204 205 206 207 207 209 210 210 210 212 216 220 224 228 230 234 241 249 255 261 265 266 267 270 269
197 148 166 220 234 245 217 258 237 275 274 294 295 276 251 217 209 209 207 205 205 206 208 209 210 213 209 207 210 211 211 211 214 216 221 224 228 232 235 240 246 253 257 261 267 270 269 271 270
202 216 203 197 210 235 252 234 220 230 237 279 297 295 265 197 208 214 205 204 207 207 208 208 211 214 216 215 213 213 215 216 218 220 223 226 230 234 239 243 248 252 255 260 266 269 276 280 278
230 217 220 225 186 236 255 234 218 235 231 253 289 324 330 231 221 220 215 206 209 211 213 211 212 216 218 217 218 217 218 219 222 228 234 233 234 237 239 243 249 253 260 265 265 264 268 280 274